DAL2691 KGRB-KATL

Flight info

Callsign DAL2691
Flight time N/A
Altitude 39000
Route DELHI TTH IMPEL HITMN NEWBB IHAVE MTHEW CHPPR1
Aircraft B738/M-VGDW/C

Departure

Time 2026-05-04 18:11
Airport Austin Straubel International Airport (KGRB)

Arrival

Time N/A
Airport Hartsfield Jackson Atlanta International Airport (KATL)
Time Latitude Longitude Altitude Speed Heading
2026-05-04 17:55 44.49082 -88.12634 690 ft 0 kts 335°
2026-05-04 18:04 44.49068 -88.12622 682 ft 2 kts 316°
2026-05-04 18:04 44.49059 -88.12603 681 ft 2 kts 269°
2026-05-04 18:04 44.49068 -88.12574 681 ft 0 kts 229°
2026-05-04 18:07 44.49053 -88.12574 686 ft 5 kts 167°
2026-05-04 18:07 44.49021 -88.12525 682 ft 9 kts 103°
2026-05-04 18:07 44.49026 -88.12399 687 ft 17 kts 83°
2026-05-04 18:07 44.49052 -88.12226 685 ft 18 kts 71°
2026-05-04 18:08 44.49097 -88.12062 683 ft 18 kts 62°
2026-05-04 18:08 44.49158 -88.11917 685 ft 17 kts 57°
2026-05-04 18:08 44.49219 -88.11777 682 ft 17 kts 59°
2026-05-04 18:08 44.49276 -88.11636 679 ft 16 kts 61°
2026-05-04 18:09 44.49375 -88.11383 678 ft 11 kts 74°
2026-05-04 18:09 44.49282 -88.11307 679 ft 10 kts 227°
2026-05-04 18:10 44.49247 -88.11390 679 ft 10 kts 240°
2026-05-04 18:10 44.49173 -88.11573 678 ft 51 kts 240°
2026-05-04 18:10 44.48863 -88.12315 683 ft 126 kts 240°
2026-05-04 18:10 44.48324 -88.13599 1025 ft 165 kts 240°
2026-05-04 18:11 44.47724 -88.14967 2101 ft 164 kts 241°
2026-05-04 18:11 44.47072 -88.16254 3249 ft 164 kts 231°
2026-05-04 18:11 44.46060 -88.17248 3764 ft 197 kts 206°
2026-05-04 18:11 44.44629 -88.17743 4006 ft 222 kts 199°
2026-05-04 18:12 44.43082 -88.18165 4489 ft 233 kts 198°
2026-05-04 18:12 44.41415 -88.18522 4800 ft 258 kts 187°
2026-05-04 18:12 44.39587 -88.18314 5608 ft 265 kts 181°
2026-05-04 18:12 44.37746 -88.17989 6529 ft 266 kts 181°
2026-05-04 18:13 44.35890 -88.17655 7324 ft 271 kts 181°
2026-05-04 18:13 44.34009 -88.17320 8181 ft 273 kts 182°
2026-05-04 18:13 44.30216 -88.16660 9793 ft 281 kts 183°
2026-05-04 18:14 44.28250 -88.16327 10440 ft 291 kts 183°
2026-05-04 18:14 44.26145 -88.15985 10618 ft 317 kts 182°
2026-05-04 18:14 44.23875 -88.15619 10817 ft 339 kts 182°
2026-05-04 18:15 44.19035 -88.14808 11988 ft 356 kts 180°
2026-05-04 18:15 44.14051 -88.13958 13438 ft 365 kts 180°
2026-05-04 18:15 44.11536 -88.13534 14056 ft 370 kts 180°
2026-05-04 18:16 44.08970 -88.13102 14747 ft 372 kts 180°
2026-05-04 18:16 44.06377 -88.12669 15391 ft 377 kts 180°
2026-05-04 18:16 44.03751 -88.12233 16028 ft 381 kts 180°
2026-05-04 18:17 43.98463 -88.11359 17255 ft 389 kts 180°
2026-05-04 18:17 43.95760 -88.10913 17875 ft 393 kts 180°
2026-05-04 18:17 43.90281 -88.10007 19024 ft 398 kts 180°
2026-05-04 18:18 43.87515 -88.09551 19606 ft 401 kts 180°
2026-05-04 18:18 43.84732 -88.09093 20162 ft 404 kts 181°
2026-05-04 18:18 43.81935 -88.08633 20701 ft 407 kts 181°
2026-05-04 18:18 43.79144 -88.08175 21210 ft 410 kts 181°
2026-05-04 18:19 43.73437 -88.07241 22277 ft 415 kts 181°
2026-05-04 18:19 43.70549 -88.06769 22778 ft 419 kts 181°
2026-05-04 18:19 43.67634 -88.06293 23235 ft 422 kts 181°
2026-05-04 18:20 43.64746 -88.05821 23659 ft 424 kts 181°
2026-05-04 18:20 43.61799 -88.05340 24067 ft 427 kts 181°
2026-05-04 18:20 43.58838 -88.04857 24427 ft 430 kts 181°
2026-05-04 18:20 43.55849 -88.04371 24814 ft 433 kts 181°
2026-05-04 18:21 43.52845 -88.03881 25214 ft 435 kts 181°
2026-05-04 18:21 43.49821 -88.03389 25596 ft 438 kts 181°
2026-05-04 18:21 43.46782 -88.02896 25973 ft 441 kts 181°
2026-05-04 18:21 43.43764 -88.02406 26340 ft 443 kts 180°
2026-05-04 18:22 43.40691 -88.01908 26677 ft 446 kts 180°
2026-05-04 18:22 43.37587 -88.01407 26996 ft 449 kts 180°
2026-05-04 18:22 43.34472 -88.00903 27329 ft 452 kts 180°
2026-05-04 18:22 43.31333 -88.00396 27682 ft 454 kts 180°
2026-05-04 18:23 43.28177 -87.99886 28014 ft 456 kts 180°
2026-05-04 18:23 43.25055 -87.99382 28327 ft 459 kts 180°
2026-05-04 18:23 43.21869 -87.98869 28631 ft 461 kts 180°
2026-05-04 18:23 43.18658 -87.98353 28888 ft 465 kts 180°
2026-05-04 18:24 43.15432 -87.97835 29148 ft 468 kts 179°
2026-05-04 18:24 43.12184 -87.97314 29438 ft 470 kts 179°
2026-05-04 18:24 43.08932 -87.96791 29779 ft 470 kts 179°
2026-05-04 18:24 43.05727 -87.96275 30176 ft 468 kts 180°
2026-05-04 18:25 43.02492 -87.95754 30622 ft 466 kts 180°
2026-05-04 18:25 42.99276 -87.95238 30975 ft 464 kts 179°
2026-05-04 18:25 42.96055 -87.94724 31254 ft 465 kts 179°
2026-05-04 18:25 42.92824 -87.94210 31549 ft 466 kts 179°
2026-05-04 18:26 42.89638 -87.93703 31905 ft 464 kts 179°
2026-05-04 18:26 42.86435 -87.93192 32316 ft 462 kts 179°
2026-05-04 18:26 42.83243 -87.92684 32662 ft 461 kts 179°
2026-05-04 18:26 42.81126 -87.92348 32878 ft 461 kts 179°
2026-05-04 18:27 42.77930 -87.91841 33191 ft 461 kts 179°
2026-05-04 18:27 42.74749 -87.91337 33526 ft 460 kts 179°
2026-05-04 18:27 42.70530 -87.90669 33904 ft 459 kts 180°
2026-05-04 18:27 42.68377 -87.90329 34045 ft 460 kts 180°
2026-05-04 18:28 42.65229 -87.89833 34243 ft 461 kts 180°
2026-05-04 18:28 42.62041 -87.89330 34477 ft 461 kts 180°
2026-05-04 18:28 42.58854 -87.88828 34704 ft 461 kts 179°
2026-05-04 18:28 42.55657 -87.88324 34915 ft 461 kts 179°
2026-05-04 18:29 42.52457 -87.87821 35128 ft 462 kts 179°
2026-05-04 18:29 42.49295 -87.87323 35357 ft 462 kts 179°
2026-05-04 18:29 42.46099 -87.86821 35579 ft 462 kts 179°
2026-05-04 18:29 42.42894 -87.86318 35791 ft 462 kts 179°
2026-05-04 18:30 42.36496 -87.85315 36244 ft 460 kts 179°
2026-05-04 18:30 42.33367 -87.84824 36576 ft 458 kts 179°
2026-05-04 18:30 42.30194 -87.84328 36763 ft 458 kts 179°
2026-05-04 18:31 42.27012 -87.83832 36887 ft 460 kts 179°
2026-05-04 18:31 42.23829 -87.83337 37087 ft 460 kts 179°
2026-05-04 18:31 42.20646 -87.82841 37329 ft 459 kts 179°
2026-05-04 18:31 42.17475 -87.82347 37529 ft 458 kts 179°
2026-05-04 18:32 42.14347 -87.81860 37806 ft 456 kts 179°
2026-05-04 18:32 42.11205 -87.81371 38040 ft 455 kts 179°
2026-05-04 18:32 42.08050 -87.80882 38190 ft 455 kts 179°
2026-05-04 18:32 42.04894 -87.80394 38315 ft 456 kts 179°
2026-05-04 18:33 42.01736 -87.79905 38443 ft 456 kts 179°
2026-05-04 18:33 41.98590 -87.79418 38577 ft 455 kts 179°
2026-05-04 18:33 41.95435 -87.78930 38612 ft 457 kts 179°
2026-05-04 18:34 41.89137 -87.77781 38651 ft 461 kts 176°